Location: Oshawa
(43.9000°N, 78.8670°W)
Time: 02:19:01
(UTC-04:00)

Courier 1B - All Passes

Search period start: 26 April 2015 00:00
Search period end: 06 May 2015 00:00
Orbit: 963 x 1209 km, 28.3° (Epoch: 25 April)

Date Brightness Start Highest point End Pass type
(mag) Time Alt. Az. Time Alt. Az. Time Alt. Az.
26 Apr - 08:56:03 10° SSW 09:00:19 18° SSE 09:04:49 10° SE daylight
26 Apr - 10:48:07 10° SW 10:53:23 23° S 10:58:53 10° SE daylight
26 Apr - 12:41:55 10° SW 12:46:32 18° SSW 12:51:13 10° SSE daylight
27 Apr - 08:03:24 10° SSW 08:06:51 15° SSE 08:10:30 10° SE daylight
27 Apr - 09:54:46 10° SW 09:59:50 22° S 10:05:07 10° SE daylight
27 Apr - 11:48:05 10° SW 11:52:58 19° S 11:57:57 10° SSE daylight
28 Apr - 07:11:20 10° S 07:13:25 12° SSE 07:15:41 10° SE daylight
28 Apr - 09:01:33 10° SW 09:06:19 20° S 09:11:17 10° SE daylight
28 Apr - 10:54:26 10° SW 10:59:24 21° S 11:04:32 10° SE daylight
28 Apr - 12:49:34 10° SW 12:52:30 12° SSW 12:55:17 10° S daylight
29 Apr - 08:08:30 10° SSW 08:12:49 18° S 08:17:21 10° SE daylight
29 Apr - 10:00:54 10° SW 10:05:51 21° S 10:11:00 10° SE daylight
29 Apr - 11:55:10 10° SW 11:58:57 15° SSW 12:02:41 10° SSE daylight
30 Apr - 07:15:38 10° SSW 07:19:22 16° SSE 07:23:17 10° SE daylight
30 Apr - 09:07:30 10° SW 09:12:21 21° S 09:17:22 10° SE daylight
30 Apr - 11:01:11 10° SW 11:05:25 17° SSW 11:09:41 10° SSE daylight
01 May - 06:23:05 10° S 06:25:56 13° SSE 06:28:58 10° SE daylight
01 May - 08:14:12 10° SW 08:18:51 20° S 08:23:40 10° SE daylight
01 May - 10:07:25 10° SW 10:11:53 18° S 10:16:27 10° SSE daylight
02 May - 05:31:30 10° SSE 05:32:31 10° SSE 05:33:45 10° SSE visible
02 May - 07:21:01 10° SW 07:25:23 19° S 07:29:54 10° SE daylight
02 May - 09:13:49 10° SW 09:18:24 20° S 09:23:05 10° SE daylight
02 May - 11:08:58 10° SW 11:11:24 12° SSW 11:13:42 10° S daylight
03 May - 06:27:59 10° SSW 06:31:57 17° SSE 06:36:03 10° SE daylight
03 May - 08:20:19 10° SW 08:24:55 20° S 08:29:37 10° SE daylight
03 May - 10:14:33 10° SW 10:17:54 14° SSW 10:21:13 10° SSE daylight
04 May - 05:35:07 10° SSW 05:38:31 15° SSE 05:42:02 10° SE visible
04 May - 07:26:54 10° SW 07:31:27 20° S 07:36:05 10° SE daylight
04 May - 09:20:34 10° SW 09:24:26 16° SSW 09:28:18 10° SSE daylight
05 May - 04:42:36 10° S 04:45:06 12° SSE 04:47:44 10° SE visible
05 May - 06:33:35 10° SW 06:38:00 19° S 06:42:29 10° SE daylight
05 May - 08:26:48 10° SW 08:30:58 18° S 08:35:09 10° SSE daylight
